[[{"header":{"parameterUnit":"m.s-1","parameterCategory":1,"la1":30.2991,"la2":30.254,"lo1":-89.0895,"lo2":-89.0444,"dy":0.0017,"dx":0.0017,"nx":28,"ny":28,"refTime":"2025-04-26T09:00:00:Z","depth":0,"parameterNumber":2,"parameterNumberName":"U-component_of_WINDS"},"data":[0,0,0,0,0,0,0,0,0,0,0,0,0,0,0,0,0,0,0,0,0,0,0,0,0,0,0,0,0,0,0,0,0,0,0,0,0,0,0,0,0,0,0,0,0,0,0,0,0,0,0,0,0,0,0,0,0,0,0.0131,0.0132,0,0.0267,0.0269,0.027,0.0317,0.0317,0.0316,0.0316,0.0459,0.0463,0.0467,0,0,0,0,0,0,0,0,0,0,0,0,0,-0.0087,-0.0083,0.0131,0.0132,0.0134,0.0267,0.0269,0.0271,0.0318,0.0317,0.0316,0.0316,0.0457,0.0462,0.0468,0,0,0,0,0,0,0,0,0,0,0,0,0,0.0024,-0.0082,0.013,0.0173,0.0179,0.0266,0.0269,0.0271,0.0318,0.0317,0.0316,0.0315,0.0456,0.0462,0.0468,0.0524,0,0,0.0488,0.0491,0,0,0,0,0,0,0,0,0.0018,0.0032,0.0165,0.0171,0.0177,0.0274,0.0244,0.0356,0.0318,0.0265,0.0316,0.0315,0.0398,0.0409,0.0437,0.0531,0.0537,0.0489,0.0493,0.0495,0.0497,0,0,0,0,0,0,0,0.001,0.0027,0.0185,0.0167,0.0174,0.0187,0.0201,0.0266,0.0335,0.027,0.0273,0.0289,0.0401,0.0431,0.0441,0.0539,0.0488,0.0494,0.0498,0.0501,0.0685,0.0686,0,0,0,0,0,0,-0.0005,0.002,0.018,0.0189,0.0094,0.0191,0.0208,0.0244,0.0334,0.0347,0.0289,0.029,0.042,0.0433,0.0446,0.0517,0.0495,0.0501,0.0505,0.0684,0.0685,0.0687,0,0,0,0,0,0,-0.001,0.0009,0.0175,0.0105,0.0127,0.0196,0.0236,0.0247,0.0276,0.0349,0.0362,0.0306,0.042,0.0437,0.0504,0.0523,0.0504,0.051,0.0683,0.0685,0.0686,0.066,0,0,0,0,0,0,-0.0016,0.0007,0.0028,0.0105,0.0131,0.023,0.0237,0.025,0.0287,0.029,0.0368,0.0381,0.042,0.0494,0.051,0.0531,0.0515,0.0682,0.0684,0.0686,0.0659,0.066,0.0661,0,0,0,0,0,-0.0024,0.0016,0.0029,0.0048,0.0159,0.0231,0.0246,0.029,0.0288,0.0311,0.0357,0.0378,0.0517,0.0501,0.0519,0.0542,0.0681,0.0683,0.0685,0.0659,0.066,0.0661,0,0,0,0,0,0,-0.0059,0.0027,0.0042,0.0109,0.0162,0.0239,0.0269,0.029,0.0345,0.0346,0.0399,0.0417,0.048,0.0518,0.0497,0.0601,0.06,0.0607,0.0574,0.0576,0.0576,0.0567,0.0521,0,0,0,0,0,-0.0059,-0.0009,0.0064,0.0116,0.0142,0.02,0.0233,0.0262,0.032,0.0343,0.0395,0.045,0.0507,0.0543,0.0599,0.0664,0.0683,0.069,0.069,0.0691,0.0696,0.0733,0.0737,0.0694,0.0694,0.0694,0,0,-0.0058,-0.0005,0.0024,0.011,0.0155,0.0206,0.0219,0.0273,0.0312,0.0352,0.0418,0.0458,0.0524,0.059,0.0622,0.0624,0.0711,0.0694,0.0693,0.0699,0.0736,0.074,0.0743,0.0696,0.0695,0.0695,0,0,-0.003,0.0015,0.0063,0.0107,0.0173,0.0212,0.0223,0.0296,0.0324,0.0391,0.0421,0.0468,0.0565,0.061,0.0646,0.0689,0.071,0.0705,0.0711,0.0746,0.075,0.0753,0.0769,0.0774,0.071,0.071,0.071,0,-0.0037,0.0041,0.0085,0.0137,0.0175,0.0211,0.026,0.0301,0.0383,0.0408,0.0408,0.0529,0.0576,0.0653,0.0663,0.0691,0.0706,0.0698,0.0745,0.0749,0.0753,0.0768,0.0774,0.0709,0.0709,0.0709,0.0709,0,0.0029,0.0083,0.0113,0.019,0.0231,0.0281,0.0333,0.0369,0.0394,0.0433,0.05,0.0557,0.0625,0.0645,0.0671,0.0726,0.0725,0.0735,0.0736,0.0755,0.0771,0.0777,0.0708,0.0708,0.0708,0.0709,0,0,0.0041,0.014,0.0151,0.0186,0.0261,0.0304,0.0355,0.0421,0.045,0.0505,0.055,0.063,0.0638,0.0679,0.071,0.0741,0.0771,0.0746,0.0749,0.075,0.0836,0.0829,0.0835,0.0785,0.0786,0.0787,0.083,0,0.0079,0.0173,0.0213,0.0289,0.0339,0.0373,0.0418,0.047,0.0506,0.0555,0.0596,0.0651,0.0659,0.0683,0.0715,0.076,0.0789,0.0758,0.0829,0.0831,0.0812,0.0843,0.0836,0.0874,0.0837,0.0838,0.0838,0,0.0137,0.019,0.027,0.0339,0.0361,0.0401,0.0464,0.0509,0.0568,0.0593,0.0636,0.0665,0.0722,0.0717,0.0795,0.0773,0.0804,0.083,0.0833,0.0842,0.0836,0.0854,0.0887,0.0893,0.0848,0.0848,0.0847,0,0.0138,0.023,0.029,0.0318,0.04,0.0427,0.0462,0.052,0.0556,0.0611,0.0635,0.0696,0.0729,0.0776,0.082,0.0813,0.0894,0.0894,0.0917,0.0916,0.0934,0.0932,0.0973,0.0952,0.0952,0.0952,0.0952,0,0.0177,0.0225,0.0291,0.0328,0.0382,0.0428,0.0481,0.0519,0.057,0.0615,0.0648,0.069,0.0745,0.0794,0.083,0.0889,0.0904,0.0926,0.0935,0.0923,0.0921,0.0946,0.0944,0.0953,0.0953,0.0953,0.0952,0,0.0188,0.0234,0.0302,0.0372,0.0391,0.0428,0.0489,0.0526,0.0564,0.062,0.0636,0.0696,0.0755,0.0803,0.0881,0.0905,0.0967,0.0977,0.0947,0.0952,0.0973,0.097,0.1032,0.1043,0.1013,0.1013,0.1013,0,0.021,0.0248,0.0322,0.0354,0.0388,0.044,0.0476,0.0523,0.056,0.0628,0.0657,0.0718,0.077,0.0863,0.0913,0.0973,0.0985,0.1002,0.0994,0.0981,0.0986,0.0983,0.0988,0.1004,0.1004,0.1004,0.1004,0,0.0245,0.0266,0.0317,0.0376,0.0418,0.0467,0.0517,0.0541,0.0597,0.0637,0.0697,0.0736,0.0815,0.0875,0.094,0.0977,0.1,0.1005,0.1014,0.1004,0.0985,0.0996,0.095,0.1004,0.1004,0.1004,0.1004,0.1004,0.0263,0.0298,0.0355,0.0411,0.0453,0.0498,0.0536,0.0578,0.0629,0.0695,0.072,0.0781,0.0838,0.0927,0.0964,0.1013,0.1016,0.1029,0.1032,0.1034,0.1033,0.0976,0.1025,0.1025,0.1025,0.1025,0.1025,0,0.03,0.0338,0.0389,0.0457,0.0501,0.0517,0.0572,0.0608,0.0661,0.0712,0.0762,0.083,0.0889,0.0943,0.1004,0.1033,0.1045,0.1047,0.1046,0.1055,0.1027,0.1014,0.1037,0.1037,0.1037,0.1037,0.1037,0.1037,0.0325,0.0384,0.0411,0.0492,0.053,0.059,0.062,0.0662,0.0703,0.0778,0.0826,0.086,0.0913,0.0977,0.1032,0.1046,0.1067,0.1067,0.1085,0.1058,0.1057,0.1055,0.1043,0.1071,0.1071,0.1108,0.1108,0.1109]},{"header":{"parameterUnit":"m.s-1","parameterCategory":1,"la1":30.2991,"la2":30.254,"lo1":-89.0895,"lo2":-89.0444,"dy":0.0017,"dx":0.0017,"nx":28,"ny":28,"refTime":"2025-04-26T09:00:00:Z","depth":0,"parameterNumber":3,"parameterNumberName":"V-component_of_WINDS"},"data":[0,0,0,0,0,0,0,0,0,0,0,0,0,0,0,0,0,0,0,0,0,0,0,0,0,0,0,0,0,0,0,0,0,0,0,0,0,0,0,0,0,0,0,0,0,0,0,0,0,0,0,0,0,0,0,0,0,0,3.1547,3.1547,0,3.1543,3.1543,3.1542,3.159,3.1591,3.1593,3.1594,3.1582,3.1581,3.1579,0,0,0,0,0,0,0,0,0,0,0,0,0,3.1592,3.1591,3.1547,3.1547,3.1547,3.1543,3.1543,3.1542,3.159,3.1591,3.1593,3.1595,3.1583,3.1581,3.1579,0,0,0,0,0,0,0,0,0,0,0,0,0,3.1578,3.159,3.1547,3.1571,3.1573,3.1543,3.1543,3.1542,3.1589,3.1591,3.1593,3.1595,3.1583,3.1581,3.1579,3.1524,0,0,3.1572,3.1571,0,0,0,0,0,0,0,0,3.1579,3.1576,3.1567,3.1569,3.1571,3.1569,3.1554,3.1536,3.1589,3.1583,3.1594,3.1596,3.1576,3.1574,3.1569,3.1524,3.1523,3.1571,3.157,3.1569,3.1568,0,0,0,0,0,0,0,3.158,3.1577,3.1545,3.1567,3.1569,3.1579,3.1579,3.1551,3.1568,3.1584,3.1587,3.1586,3.1577,3.1571,3.1569,3.1523,3.1571,3.1569,3.1568,3.1567,3.1433,3.1431,0,0,0,0,0,0,3.1578,3.1577,3.1545,3.1545,3.158,3.1577,3.1577,3.1568,3.1568,3.1571,3.1584,3.1588,3.1574,3.1571,3.1569,3.1505,3.1569,3.1567,3.1566,3.1435,3.1433,3.143,0,0,0,0,0,0,3.1579,3.1575,3.1546,3.1562,3.1559,3.1574,3.1563,3.1566,3.156,3.1569,3.1572,3.1575,3.1575,3.1572,3.1535,3.1505,3.1566,3.1564,3.1438,3.1434,3.1431,3.1377,0,0,0,0,0,0,3.158,3.1575,3.1556,3.1562,3.1558,3.1514,3.1561,3.1565,3.1557,3.1562,3.1561,3.1563,3.1577,3.1539,3.1533,3.1503,3.1562,3.1441,3.1436,3.1432,3.1381,3.1372,3.1364,0,0,0,0,0,3.1582,3.1539,3.1555,3.1551,3.1535,3.1513,3.151,3.1529,3.1554,3.1534,3.154,3.1563,3.151,3.1535,3.1529,3.1497,3.1442,3.1437,3.1433,3.1385,3.1374,3.1364,0,0,0,0,0,0,3.1527,3.154,3.1558,3.1516,3.1513,3.1521,3.1496,3.1516,3.1504,3.1509,3.1531,3.153,3.149,3.149,3.1518,3.1445,3.148,3.1474,3.1446,3.1435,3.1427,3.1427,3.156,0,0,0,0,0,3.1511,3.1493,3.1505,3.1467,3.1465,3.1481,3.1472,3.1487,3.1483,3.1481,3.1485,3.1479,3.1461,3.1448,3.1432,3.1382,3.1382,3.1357,3.1349,3.1342,3.1336,3.1309,3.1298,3.1414,3.1414,3.1414,0,0,3.1475,3.1481,3.1468,3.1457,3.1456,3.1436,3.1479,3.1456,3.1441,3.1477,3.1444,3.1446,3.144,3.1397,3.1378,3.1396,3.1304,3.1336,3.133,3.1328,3.1303,3.1292,3.1282,3.1411,3.1412,3.1412,0,0,3.1402,3.1404,3.1373,3.1372,3.1372,3.1383,3.1375,3.138,3.1383,3.1351,3.1378,3.1359,3.1327,3.1323,3.1316,3.1241,3.1261,3.1235,3.119,3.1163,3.1154,3.1146,3.1119,3.1109,3.1229,3.1229,3.1229,0,3.1357,3.133,3.1354,3.133,3.1323,3.1358,3.1326,3.1323,3.1316,3.131,3.1331,3.1293,3.1291,3.1247,3.1229,3.1223,3.1214,3.1235,3.1154,3.1146,3.1139,3.1113,3.1103,3.1226,3.1226,3.1227,3.1227,0,3.1276,3.1256,3.1231,3.1227,3.1217,3.1189,3.1206,3.1194,3.121,3.1218,3.1183,3.1184,3.1168,3.1159,3.1173,3.1116,3.1128,3.1151,3.1187,3.1124,3.11,3.1091,3.1221,3.1223,3.1223,3.1224,0,0,3.1166,3.1176,3.1166,3.1165,3.1167,3.1152,3.1124,3.1112,3.11,3.1094,3.1071,3.1044,3.1066,3.1058,3.1072,3.1049,3.0989,3.1075,3.1075,3.1059,3.0926,3.0908,3.0897,3.1003,3.1002,3.1,3.0927,0,3.1094,3.105,3.1071,3.1024,3.1006,3.1039,3.1015,3.1013,3.1019,3.1003,3.101,3.0991,3.1021,3.1017,3.0996,3.1001,3.0963,3.1007,3.098,3.0979,3.098,3.0884,3.0865,3.0796,3.0917,3.0916,3.0915,0,3.1004,3.0997,3.0948,3.0955,3.0948,3.0926,3.0916,3.0901,3.0899,3.0905,3.0898,3.0917,3.0889,3.0925,3.0886,3.0915,3.0906,3.0906,3.0904,3.0902,3.0942,3.0878,3.0774,3.0763,3.09,3.0901,3.0902,0,3.0928,3.0906,3.0875,3.0872,3.0879,3.0863,3.0864,3.0864,3.0856,3.0846,3.084,3.0827,3.0819,3.0807,3.0822,3.0848,3.078,3.0818,3.0783,3.0782,3.0766,3.0767,3.0658,3.0761,3.0761,3.0761,3.0762,0,3.0845,3.0814,3.0841,3.0821,3.0787,3.0811,3.0776,3.078,3.078,3.0761,3.0788,3.0769,3.079,3.0771,3.0782,3.0748,3.0744,3.0747,3.075,3.0744,3.0744,3.0737,3.0742,3.0759,3.0759,3.076,3.076,0,3.0754,3.0772,3.0739,3.0749,3.0751,3.0725,3.0732,3.0713,3.0723,3.0698,3.0693,3.0707,3.0687,3.0701,3.068,3.0688,3.0642,3.0652,3.0643,3.0646,3.061,3.0613,3.0493,3.0478,3.0591,3.059,3.0589,0,3.07,3.0677,3.0685,3.0675,3.0676,3.0659,3.0651,3.0673,3.0663,3.0659,3.064,3.0624,3.0611,3.0578,3.0585,3.0569,3.0579,3.0538,3.0576,3.0571,3.0577,3.0578,3.0576,3.0529,3.0528,3.0527,3.0526,0,3.0601,3.0611,3.06,3.0591,3.0581,3.0574,3.057,3.056,3.0582,3.0569,3.0551,3.0541,3.0522,3.0504,3.0492,3.0491,3.0511,3.0514,3.0505,3.0499,3.0495,3.0496,3.0622,3.0517,3.0518,3.0518,3.0519,3.0519,3.0526,3.0508,3.0511,3.0497,3.0497,3.0492,3.0475,3.0483,3.0469,3.0457,3.047,3.0447,3.0445,3.0431,3.0428,3.0409,3.0425,3.0412,3.0409,3.0405,3.04,3.0498,3.0407,3.0407,3.0407,3.0407,3.0408,0,3.0429,3.0433,3.042,3.0414,3.0403,3.0426,3.0422,3.0411,3.0391,3.0389,3.0377,3.0355,3.0339,3.0345,3.033,3.0313,3.0322,3.0309,3.0309,3.0309,3.0386,3.0396,3.0302,3.0302,3.0302,3.0302,3.0302,3.0302,3.0377,3.0347,3.0357,3.0326,3.033,3.031,3.0306,3.0301,3.03,3.0275,3.0263,3.0268,3.0268,3.0253,3.0238,3.024,3.0233,3.0216,3.0221,3.0293,3.0303,3.0313,3.0322,3.0214,3.0214,3.0145,3.0144,3.0144]}]]